Powrót do katalogu

STARLINK-5025

AktywnyŁącznośćVLEO
NORAD 53920·PAYLOAD·🇺🇸 United States

Wystrzelony Sep 24, 2022 z Cape Canaveral Space Force Station

Loading…

Następne Przeloty (najbliższe 24 godziny)

TLE

ŚwieżeSource: CelesTrak SupGP

Epoka: Sep 14, 2026, 21:00 UTC

1 53920C 22119AL  26257.87548611 -.00019433  00000+0 -62479-3 0  2575
2 53920  53.1592 174.0286 0001553  95.9308 155.9832 15.31717220    15

Śledź STARLINK-5025 w czasie rzeczywistym z AllMySat

Download on the App Store